SES-15

Last updated on Wed Nov 20 2024 00:02:42 GMT+0000 (Coordinated Universal Time)

1 42709U 17026A 24323.50188456 .00000063 00000+0 00000+0 0 9996 2 42709 0.0316 33.5619 0000657 191.1843 244.8065 1.00271069 1675
UTC large
Height (km)
Speed (km/s)
/
Latitude / Longitude
Inclination (degrees)
Orbital Period (minutes)
Azimuth
Elevation
Range (km)
Doppler Factor

Next 0 passes for location: London (51.5072 / 0.1276)

Sorry there are no passes over London.